Zurück zum Katalog

STARLINK-4062

AktivKommunikationVLEO
NORAD 53261·PAYLOAD·🇺🇸 United States

Gestartet Jul 24, 2022 von Cape Canaveral Space Force Station

Loading…

Nächste Überflüge (nächste 24 Stunden)

TLE

AktuellSource: CelesTrak SupGP

Epoche: Sep 14, 2026, 21:36 UTC

1 53261C 22086V   26257.90048611  .00048351  00000+0  14289-2 0  2579
2 53261  53.1590  51.5925 0001178  80.4918 126.3135 15.34358429    12

Verfolge STARLINK-4062 in Echtzeit mit AllMySat

Download on the App Store